CAPE
243 449 1288 1437 1243 1107 1084 1047 1105 1156 1064 1044 839 796 680 756 752 601 487 330 216 50 29 45 18 13 21 3 23 9 31 47 56 53 67 51 75 90 68 98 57 21 37
350 884 1396 1400 1246 1108 1144 1209 1211 1147 1102 913 731 649 509 399 397 367 239 153 121 18 37 18 23 36 11 1 20 55 53 66 34 45 70 95 64 72 70 66 47 23 19
458 978 1263 1317 1213 1185 1139 1209 1336 1225 994 711 584 457 386 294 214 120 124 89 98 49 44 12 18 35 1 0 12 39 50 70 51 56 52 18 41 48 52 49 40 19 21
435 684 1300 1284 1318 1302 1229 1355 1313 1036 684 579 438 295 274 319 133 74 179 108 160 49 51 36 38 21 0 0 0 4 26 56 59 81 0 12 44 60 45 29 25 25 28
494 786 1419 1202 1194 1250 1227 1254 1133 795 529 413 269 240 289 71 18 40 82 108 94 35 35 38 23 4 0 0 0 0 4 32 62 33 19 16 34 42 42 26 21 23 22
556 763 1094 1068 1017 1128 1163 1075 962 622 466 372 260 215 212 18 16 40 56 66 46 39 30 23 9 0 0 0 0 0 1 10 46 0 32 33 24 47 31 21 15 29 28
788 782 1076 1018 1027 1144 1247 1147 792 529 466 388 236 199 190 92 41 61 56 52 46 30 20 13 7 0 0 0 0 0 0 6 5 2 3 17 26 29 11 16 23 11 32
693 809 1042 1200 1113 1138 1092 778 527 392 401 397 292 175 219 110 44 53 45 42 39 23 14 3 8 0 0 0 0 0 0 6 12 0 0 5 27 15 7 15 38 18 36
534 729 1038 1106 1185 863 524 364 299 300 260 261 250 99 96 28 31 40 50 36 22 29 17 15 10 0 0 0 0 0 0 3 0 0 0 1 19 3 35 43 34 30 26
581 459 634 747 896 738 395 272 238 212 173 178 92 12 23 33 34 35 37 45 34 32 15 8 8 0 0 0 0 0 0 10 0 0 0 18 37 30 22 21 6 14 9
642 666 680 533 663 738 489 341 242 224 171 99 31 3 1 10 19 16 16 32 37 35 14 15 5 0 0 0 0 0 0 7 3 0 0 10 25 22 15 17 4 14 12
691 810 788 754 582 512 433 238 161 61 5 0 0 0 11 12 3 9 11 17 21 15 23 13 0 0 0 0 0 0 0 2 0 0 0 25 6 11 20 16 3 2 14
834 739 751 752 578 436 362 295 194 91 14 1 0 0 40 15 7 7 0 0 0 1 0 0 0 0 0 0 0 0 0 0 0 0 1 29 14 20 40 13 8 1 4
920 703 740 778 710 579 343 324 221 107 68 14 0 10 60 27 6 0 0 0 0 0 0 0 0 0 2 2 0 0 0 3 0 0 0 21 14 9 16 1 4 5 4
708 816 798 784 987 829 534 402 322 179 72 36 13 108 14 36 1 0 0 0 0 7 0 0 4 0 0 0 0 0 0 0 0 0 0 19 19 6 3 7 4 6 2
758 671 446 618 1062 828 420 559 508 332 70 36 25 43 68 59 17 18 27 1 7 1 3 10 1 0 0 0 0 0 0 0 0 0 0 0 6 10 10 4 0 2 3
461 501 515 633 596 773 497 828 665 424 180 122 29 100 18 82 37 61 29 20 4 20 23 19 5 6 6 0 0 0 0 0 0 0 0 0 0 0 0 8 4 1 1
393 330 90 573 493 408 540 789 634 516 362 89 83 36 0 6 14 16 9 17 11 30 11 6 2 12 4 0 0 0 0 0 0 0 0 0 0 0 0 0 0 0 2
270 312 606 543 422 19 239 388 519 534 381 194 110 46 25 1 3 0 19 6 17 15 2 13 6 19 12 2 0 0 0 0 0 0 0 0 0 0 0 0 0 0 0
181 318 506 643 417 259 264 49 141 377 448 254 236 130 46 22 21 30 14 29 8 5 0 10 15 22 22 5 0 0 0 0 0 0 0 0 0 0 0 0 0 0 0
228 411 721 996 513 407 203 0 199 48 383 451 291 134 116 87 73 31 1 54 0 0 0 7 16 30 5 21 7 3 0 0 0 0 0 0 0 0 0 0 0 0 0
27 88 387 533 580 370 243 184 224 256 315 349 309 163 236 109 62 60 6 15 7 0 2 7 2 0 1 7 1 0 0 0 0 0 0 0 0 0 0 0 0 0 0
0 0 38 258 497 568 509 372 363 354 107 188 134 457 297 288 91 29 21 3 6 0 1 11 4 4 1 4 0 0 1 0 0 0 0 0 0 0 0 0 0 0 0
0 0 0 1 83 383 522 558 409 350 244 82 301 365 331 335 125 54 86 0 11 0 2 12 5 0 5 2 4 0 0 0 0 0 0 0 0 0 0 0 0 0 0
0 0 0 0 0 62 203 415 361 464 283 384 375 278 287 194 89 77 134 40 0 2 0 0 0 0 1 1 0 0 0 0 0 0 0 0 0 0 0 0 0 0 0
0 0 0 0 0 0 46 143 395 385 235 295 424 341 219 154 116 97 170 103 8 0 0 0 0 0 0 0 0 5 1 0 0 0 0 0 0 0 0 0 0 0 0
CIN
-207 -182 -16 -2 -2 -0 -0 -0 -0 -0 -0 -0 -0 -0 -0 -0 -0 -0 -0 -0 -4 -69 -52 -34 -0 -0 -0 -0 -0 -3 -0 -0 -0 -0 -0 -0 -0 -0 -0 -0 -0 -0 -0
-209 -120 -17 -2 -2 -0 -0 -0 -0 -0 -0 -0 -0 -1 -1 -5 -5 -0 -13 -40 -24 -0 -0 -0 -0 -0 -0 -0 -3 -0 -0 -1 -0 -0 -0 -0 -0 -0 -0 -0 -0 -0 -0
-241 -79 -13 -6 -0 -0 -0 -0 -0 -0 -0 -0 -0 -2 -4 -5 -5 -28 -85 -66 -53 -15 -0 -0 -0 -0 -0 -0 -5 -0 -0 -2 -7 -0 -0 -2 -1 -0 -0 -0 -0 -0 -0
-230 -168 -7 -12 -0 -0 -0 -0 -0 -0 -0 -0 -0 -2 -4 -2 -6 -35 -25 -76 -50 -0 -0 -0 -0 -0 -0 -0 -0 -27 -16 -14 -25 -1 -0 -1 -0 -0 -0 -0 -0 -0 -0
-118 -142 -37 -15 -2 -0 -0 -0 -0 -0 -0 -0 -1 -1 -0 -0 -2 -3 -59 -85 -71 -0 -0 -0 -0 -0 -0 -0 -0 -0 -53 -34 -37 -7 -8 -8 -2 -0 -0 -0 -0 -0 -0
-127 -84 -96 -49 -27 -1 -0 -0 -0 -0 -4 -1 -5 -0 -1 -0 -1 -2 -2 -2 -0 -0 -0 -0 -0 -0 -0 -0 -0 -0 -43 -79 -28 -0 -13 -0 -1 -0 -0 -0 -0 -1 -0
-96 -90 -56 -41 -40 -4 -0 -0 -0 -3 -10 -1 -1 -1 -1 -15 -1 -0 -1 -3 -3 -3 -0 -0 -0 -0 -0 -0 -0 -0 -0 -127 -9 -17 -0 -6 -4 -0 -0 -0 -0 -0 -0
-115 -68 -32 -4 -2 -0 -0 -0 -22 -3 -3 -2 -2 -3 -0 -12 -0 -1 -8 -7 -4 -3 -0 -0 -0 -0 -0 -0 -0 -0 -0 -124 -6 -1 -0 -0 -1 -0 -0 -0 -0 -0 -0
-139 -71 -26 -1 -0 -1 -10 -7 -6 -5 -5 -5 -4 -8 -13 -8 -6 -7 -6 -4 -4 -2 -0 -0 -1 -0 -0 -0 -0 -0 -0 -152 -16 -0 -0 -1 -1 -0 -0 -0 -0 -1 -0
-152 -134 -64 -11 -11 -21 -27 -34 -22 -31 -18 -12 -18 -8 -9 -7 -12 -11 -9 -4 -3 -2 -0 -0 -1 -0 -0 -0 -0 -0 -0 -130 -0 -0 -0 -6 -3 -0 -1 -0 -0 -1 -0
-138 -97 -53 -50 -22 -6 -22 -12 -22 -18 -23 -46 -62 -12 -2 -11 -12 -8 -7 -5 -3 -4 -0 -0 -2 -0 -0 -0 -0 -0 -0 -13 -14 -0 -0 -0 -2 -1 -0 -1 -0 -0 -0
-120 -71 -59 -40 -46 -27 -14 -27 -36 -66 -48 -0 -0 -0 -10 -7 -14 -18 -11 -3 -2 -2 -0 -2 -0 -0 -0 -0 -0 -0 -0 -19 -0 -0 -0 -1 -0 -0 -0 -0 -0 -0 -0
-70 -76 -49 -25 -33 -38 -40 -33 -21 -50 -97 -5 -0 -0 -19 -26 -43 -38 -0 -0 -0 -0 -0 -0 -0 -0 -0 -0 -0 -0 -0 -0 -0 -0 -7 -1 -0 -0 -0 -1 -0 -0 -0
-44 -44 -35 -12 -9 -26 -28 -18 -30 -51 -53 -51 -0 -34 -132 -42 -25 -0 -0 -0 -0 -0 -0 -0 -0 -0 -7 -11 -0 -0 -0 -12 -0 -0 -0 -3 -0 -0 -0 -0 -0 -0 -0
-7 -7 -13 -19 -4 -10 -24 -17 -25 -27 -45 -49 -29 -16 -42 -17 -7 -24 -1 -0 -0 -16 -0 -0 -16 -0 -0 -0 -0 -0 -0 -0 -0 -0 -0 -7 -3 -0 -0 -0 -0 -0 -0
-2 -3 -7 -7 -13 -5 -23 -12 -9 -15 -51 -68 -36 -28 -40 -39 -45 -37 -17 -18 -13 -2 -23 -21 -19 -0 -0 -0 -0 -0 -0 -0 -0 -0 -0 -0 -6 -1 -0 -0 -0 -0 -0
-44 -4 -23 -0 -7 -11 -18 -13 -5 -7 -17 -26 -70 -23 -15 -24 -24 -151 -25 -34 -25 -11 -21 -17 -22 -11 -5 -0 -0 -0 -0 -0 -0 -0 -0 -0 -0 -0 -0 -0 -0 -0 -0
-48 -37 -78 -0 -0 -6 -18 -18 -14 -6 -4 -32 -32 -57 -0 -15 -16 -20 -17 -14 -19 -20 -31 -21 -18 -11 -9 -0 -0 -0 -0 -0 -0 -0 -0 -0 -0 -0 -0 -0 -0 -0 -0
-65 -50 -0 -0 -0 -36 -8 -18 -15 -9 -14 -28 -32 -55 -48 -4 -9 -0 -15 -22 -21 -27 -35 -19 -18 -10 -12 -11 -5 -0 -0 -0 -0 -0 -0 -0 -0 -0 -0 -0 -0 -0 -0
-90 -45 -2 -0 -0 -3 -0 -49 -1 -11 -15 -15 -11 -24 -52 -44 -50 -23 -15 -27 -24 -17 -2 -15 -11 -10 -9 -16 -0 -0 -0 -1 -0 -0 -0 -0 -0 -0 -0 -0 -0 -0 -0
-64 -29 -0 -0 -0 -0 -18 -0 -0 -106 -11 -12 -13 -20 -25 -24 -37 -38 -5 -46 -6 -0 -0 -23 -18 -9 -16 -16 -10 -13 -0 -0 -0 -0 -0 -0 -0 -0 -0 -0 -0 -0 -0
-66 -75 -5 -0 -0 -0 -21 -24 -5 -0 -3 -18 -9 -14 -31 -59 -51 -40 -9 -15 -20 -0 -19 -26 -10 -1 -8 -19 -8 -0 -0 -0 -0 -0 -0 -0 -0 -0 -0 -0 -0 -0 -0
-0 -0 -70 -13 -0 -0 -0 -0 -0 -0 -1 -5 -2 -11 -11 -25 -63 -77 -85 -6 -16 -0 -5 -15 -16 -12 -1 -8 -0 -0 -0 -0 -0 -0 -0 -0 -0 -0 -0 -0 -0 -0 -0
-0 -0 -0 -1 -16 -0 -0 -0 -0 -0 -0 -30 -5 -1 -14 -12 -20 -75 -53 -0 -15 -0 -5 -22 -15 -0 -14 -7 -23 -0 -0 -0 -0 -0 -0 -0 -0 -0 -0 -0 -0 -0 -0
-0 -0 -0 -0 -0 -16 -0 -0 -0 -0 -0 -2 -4 -7 -15 -28 -50 -45 -45 -47 -0 -18 -0 -0 -0 -0 -3 -6 -0 -1 -0 -0 -0 -0 -0 -0 -0 -0 -0 -0 -0 -0 -0
-0 -0 -0 -0 -0 -0 -8 -3 -0 -0 -0 -0 -3 -0 -2 -41 -62 -80 -23 -7 -30 -0 -0 -0 -0 -0 -0 -0 -0 -9 -6 -0 -0 -0 -0 -0 -0 -0 -0 -0 -0 -0 -0
Wind_Speed
18 16 12 11 12 14 16 20 20 21 21 20 20 18 14 13 11 13 11 9 10 nan nan nan nan nan nan nan nan nan nan nan nan nan nan nan nan nan nan nan nan nan nan
21 20 16 14 14 17 20 21 21 21 23 22 22 20 15 15 15 14 15 10 10 nan nan nan nan nan nan nan nan nan nan nan nan nan nan nan nan nan nan nan nan nan nan
38 28 21 16 15 18 22 21 22 22 23 24 23 23 20 18 15 14 16 nan nan nan nan nan nan nan nan nan nan nan nan nan nan nan nan nan nan nan nan nan nan nan nan
35 29 17 20 16 18 20 20 21 24 23 26 23 25 21 18 17 nan 18 13 14 nan nan nan nan nan nan nan nan nan nan nan nan nan nan nan nan nan nan nan nan nan nan
30 23 19 21 20 17 20 21 22 25 24 26 24 26 22 nan nan nan nan 18 nan nan nan nan nan nan nan nan nan nan nan nan nan nan nan nan nan nan nan nan nan nan nan
23 22 22 21 19 18 19 22 26 23 26 25 24 26 23 nan nan nan nan nan nan nan nan nan nan nan nan nan nan nan nan nan nan nan nan nan nan nan nan nan nan nan nan
23 9 20 23 23 23 20 23 26 24 26 27 24 26 23 nan nan nan nan nan nan nan nan nan nan nan nan nan nan nan nan nan nan nan nan nan nan nan nan nan nan nan nan
18 15 18 25 33 27 26 23 25 25 25 27 26 25 25 24 nan nan nan nan nan nan nan nan nan nan nan nan nan nan nan nan nan nan nan nan nan nan nan nan nan nan nan
21 18 15 18 28 27 26 23 24 25 27 28 29 nan nan nan nan nan nan nan nan nan nan nan nan nan nan nan nan nan nan nan nan nan nan nan nan nan nan nan nan nan nan
19 19 16 11 16 27 20 25 24 25 27 30 nan nan nan nan nan nan nan nan nan nan nan nan nan nan nan nan nan nan nan nan nan nan nan nan nan nan nan nan nan nan nan
19 17 13 15 12 17 27 24 26 27 29 nan nan nan nan nan nan nan nan nan nan nan nan nan nan nan nan nan nan nan nan nan nan nan nan nan nan nan nan nan nan nan nan
24 20 20 19 15 17 18 28 24 nan nan nan nan nan nan nan nan nan nan nan nan nan nan nan nan nan nan nan nan nan nan nan nan nan nan nan nan nan nan nan nan nan nan
27 23 21 21 22 18 22 18 22 nan nan nan nan nan nan nan nan nan nan nan nan nan nan nan nan nan nan nan nan nan nan nan nan nan nan nan nan nan nan nan nan nan nan
27 30 25 24 23 21 22 19 21 26 nan nan nan nan nan nan nan nan nan nan nan nan nan nan nan nan nan nan nan nan nan nan nan nan nan nan nan nan nan nan nan nan nan
32 30 31 27 25 25 26 23 25 25 nan nan nan 24 nan nan nan nan nan nan nan nan nan nan nan nan nan nan nan nan nan nan nan nan nan nan nan nan nan nan nan nan nan
43 44 45 30 26 27 28 31 30 29 nan nan nan nan nan nan nan nan nan nan nan nan nan nan nan nan nan nan nan nan nan nan nan nan nan nan nan nan nan nan nan nan nan
42 39 48 36 19 28 31 37 37 32 28 29 nan 35 nan nan nan nan nan nan nan nan nan nan nan nan nan nan nan nan nan nan nan nan nan nan nan nan nan nan nan nan nan
44 48 nan 30 33 33 36 37 39 37 33 nan nan nan nan nan nan nan nan nan nan nan nan nan nan nan nan nan nan nan nan nan nan nan nan nan nan nan nan nan nan nan nan
41 46 43 40 43 nan 11 43 41 38 35 34 31 nan nan nan nan nan nan nan nan nan nan nan nan nan nan nan nan nan nan nan nan nan nan nan nan nan nan nan nan nan nan
45 47 47 43 44 39 33 nan 30 41 37 32 30 35 nan nan nan nan nan nan nan nan nan nan nan nan nan nan nan nan nan nan nan nan nan nan nan nan nan nan nan nan nan
51 53 52 50 50 47 41 nan 18 nan 44 36 30 35 39 nan nan nan nan nan nan nan nan nan nan nan nan nan nan nan nan nan nan nan nan nan nan nan nan nan nan nan nan
nan nan 56 55 54 51 46 38 35 27 21 29 33 37 30 34 nan nan nan nan nan nan nan nan nan nan nan nan nan nan nan nan nan nan nan nan nan nan nan nan nan nan nan
nan nan nan 60 59 55 51 41 37 35 35 33 30 38 28 28 nan nan nan nan nan nan nan nan nan nan nan nan nan nan nan nan nan nan nan nan nan nan nan nan nan nan nan
nan nan nan nan nan 61 58 50 48 44 39 nan 32 32 33 36 37 nan nan nan nan nan nan nan nan nan nan nan nan nan nan nan nan nan nan nan nan nan nan nan nan nan nan
nan nan nan nan nan nan 64 58 51 48 44 38 39 35 33 28 nan nan 36 nan nan nan nan nan nan nan nan nan nan nan nan nan nan nan nan nan nan nan nan nan nan nan nan
nan nan nan nan nan nan nan 64 58 51 47 44 41 41 36 33 31 nan 13 23 nan nan nan nan nan nan nan nan nan nan nan nan nan nan nan nan nan nan nan nan nan nan nan
Wind_Direction
282 270 247 256 252 262 251 242 230 229 229 224 223 224 221 231 253 263 268 287 307 nan nan nan nan nan nan nan nan nan nan nan nan nan nan nan nan nan nan nan nan nan nan
277 270 255 265 248 257 257 246 239 234 239 232 231 230 225 228 236 258 269 280 307 nan nan nan nan nan nan nan nan nan nan nan nan nan nan nan nan nan nan nan nan nan nan
276 262 265 253 256 259 259 251 245 240 241 241 238 238 231 227 235 246 261 nan nan nan nan nan nan nan nan nan nan nan nan nan nan nan nan nan nan nan nan nan nan nan nan
287 254 256 252 249 252 259 261 252 250 243 243 240 242 233 231 238 nan 252 274 288 nan nan nan nan nan nan nan nan nan nan nan nan nan nan nan nan nan nan nan nan nan nan
306 242 260 264 256 249 258 257 257 254 246 242 239 243 239 nan nan nan nan 261 nan nan nan nan nan nan nan nan nan nan nan nan nan nan nan nan nan nan nan nan nan nan nan
312 296 252 273 270 266 257 263 264 257 253 247 240 242 245 nan nan nan nan nan nan nan nan nan nan nan nan nan nan nan nan nan nan nan nan nan nan nan nan nan nan nan nan
283 284 294 236 267 271 267 264 263 261 257 256 247 243 245 nan nan nan nan nan nan nan nan nan nan nan nan nan nan nan nan nan nan nan nan nan nan nan nan nan nan nan nan
288 305 293 253 251 256 262 257 254 258 257 255 252 245 250 250 nan nan nan nan nan nan nan nan nan nan nan nan nan nan nan nan nan nan nan nan nan nan nan nan nan nan nan
302 301 298 295 261 237 250 252 255 252 255 256 252 nan nan nan nan nan nan nan nan nan nan nan nan nan nan nan nan nan nan nan nan nan nan nan nan nan nan nan nan nan nan
288 294 303 318 301 241 244 257 257 254 251 255 nan nan nan nan nan nan nan nan nan nan nan nan nan nan nan nan nan nan nan nan nan nan nan nan nan nan nan nan nan nan nan
280 277 292 291 289 280 244 245 249 260 261 nan nan nan nan nan nan nan nan nan nan nan nan nan nan nan nan nan nan nan nan nan nan nan nan nan nan nan nan nan nan nan nan
286 288 279 280 282 279 263 235 252 nan nan nan nan nan nan nan nan nan nan nan nan nan nan nan nan nan nan nan nan nan nan nan nan nan nan nan nan nan nan nan nan nan nan
279 276 281 275 275 277 269 246 234 nan nan nan nan nan nan nan nan nan nan nan nan nan nan nan nan nan nan nan nan nan nan nan nan nan nan nan nan nan nan nan nan nan nan
270 269 270 268 262 266 265 260 261 243 nan nan nan nan nan nan nan nan nan nan nan nan nan nan nan nan nan nan nan nan nan nan nan nan nan nan nan nan nan nan nan nan nan
248 250 253 256 259 258 263 258 255 248 nan nan nan 253 nan nan nan nan nan nan nan nan nan nan nan nan nan nan nan nan nan nan nan nan nan nan nan nan nan nan nan nan nan
233 230 227 227 253 260 262 262 255 255 nan nan nan nan nan nan nan nan nan nan nan nan nan nan nan nan nan nan nan nan nan nan nan nan nan nan nan nan nan nan nan nan nan
237 232 225 208 219 256 259 263 261 254 252 247 nan 242 nan nan nan nan nan nan nan nan nan nan nan nan nan nan nan nan nan nan nan nan nan nan nan nan nan nan nan nan nan
238 239 nan 228 230 259 242 255 258 258 250 nan nan nan nan nan nan nan nan nan nan nan nan nan nan nan nan nan nan nan nan nan nan nan nan nan nan nan nan nan nan nan nan
240 239 243 240 247 nan 213 247 250 262 264 259 245 nan nan nan nan nan nan nan nan nan nan nan nan nan nan nan nan nan nan nan nan nan nan nan nan nan nan nan nan nan nan
242 242 241 242 243 242 253 nan 226 250 247 250 249 256 nan nan nan nan nan nan nan nan nan nan nan nan nan nan nan nan nan nan nan nan nan nan nan nan nan nan nan nan nan
239 239 239 237 239 245 254 nan 271 nan 249 243 250 258 260 nan nan nan nan nan nan nan nan nan nan nan nan nan nan nan nan nan nan nan nan nan nan nan nan nan nan nan nan
nan nan 239 239 241 245 248 246 255 264 254 242 250 256 251 274 nan nan nan nan nan nan nan nan nan nan nan nan nan nan nan nan nan nan nan nan nan nan nan nan nan nan nan
nan nan nan 240 239 242 244 247 254 260 253 262 247 238 237 265 nan nan nan nan nan nan nan nan nan nan nan nan nan nan nan nan nan nan nan nan nan nan nan nan nan nan nan
nan nan nan nan nan 242 241 240 243 252 256 nan 272 276 275 280 282 nan nan nan nan nan nan nan nan nan nan nan nan nan nan nan nan nan nan nan nan nan nan nan nan nan nan
nan nan nan nan nan nan 241 242 241 242 248 265 276 286 283 278 nan nan 265 nan nan nan nan nan nan nan nan nan nan nan nan nan nan nan nan nan nan nan nan nan nan nan nan
nan nan nan nan nan nan nan 240 240 240 241 243 268 272 272 263 273 nan 262 265 nan nan nan nan nan nan nan nan nan nan nan nan nan nan nan nan nan nan nan nan nan nan nan